Weather Roundup
Issued by NWS

Home | Current Version | Previous Version | Graphics & Text | Print | Product List | Glossary Off
Versions: 1 2 3 4 5 6 7 8 9 10 11 12 13 14 15 16 17 18 19 20 21 22 23 24 25 26 27 28 29 30 31 32 33 34 35 36 37 38 39 40 41 42 43 44 45 46 47 48 49 50

000
NZUS93 KARX 300459
HRRWXR

CURRENT HOURLY OBSERVATIONS ACROSS
MUCH OF THE UPPER MISSISSIPPI VALLEY
NATIONAL WEATHER SERVICE LA CROSSE WI
1200 AM CDT SAT AUG 30 2014


...SOUTHEAST MINNESOTA...


CITY           SKY/WX    TMP DP  RH WIND       PRES   REMARKS
ROCHESTER      LGT RAIN  65  63  93 SW5       29.79R
ROCHESTER/MAYO MOCLDY    65  64  95 SW3       29.78R
WINONA         CLOUDY    70  68  94 CALM      29.75F
AUSTIN         CLOUDY    64  64 100 CALM      29.77R
ALBERT LEA     CLOUDY    66  64  94 NW7       29.76F
DODGE CENTER   MOCLDY    66  66 100 W8        29.78R
PRESTON        RAIN      65  65 100 CALM      29.79R
OWATONNA       RAIN      70  66  88 CALM      29.77F
FARIBAULT      CLOUDY    72  64  78 CALM      29.78S
$$

...ELSEWHERE IN MINNESOTA...


CITY           SKY/WX    TMP DP  RH WIND       PRES   REMARKS
MINNEAPOLIS    LGT RAIN  70  69  97 NE5       29.77R
INTNL FALLS    CLOUDY    59  57  93 N10       29.84R
DULUTH         CLOUDY    64  61  90 N5        29.80S
RED WING       RAIN      68  66  94 N3        29.75F
REDWOOD FALLS  MOCLDY    65  65 100 W5        29.79S
MANKATO        CLOUDY    68  64  88 NW7       29.78S
WORTHINGTON    CLOUDY    64  64 100 NW5       29.84S
FAIRMONT       CLOUDY    64  63  94 NW7       29.78F
$$

...SOUTHWEST WISCONSIN...


CITY           SKY/WX    TMP DP  RH WIND       PRES   REMARKS
LA CROSSE      LGT RAIN  70  67  90 NE3       29.75F FOG
PRAIRIE DU CHI RAIN      71  68  90 CALM      29.77F
BOSCOBEL       RAIN      71  68  90 CALM      29.78F
LONE ROCK      NOT AVBL
PLATTEVILLE    CLOUDY    73  72  95 S6        29.81F
FORT MC COY    CLOUDY    67  66  97 CALM      29.78S
CAMP DOUGLAS   CLOUDY    68  68 100 NW3       29.81R
VIROQUA        CLOUDY    67  67 100 SE9       29.80S
WIS DELLS      DRIZZLE   75  67  77 SW9       29.80R
$$

...ELSEWHERE IN WISCONSIN...


CITY           SKY/WX    TMP DP  RH WIND       PRES   REMARKS
MILWAUKEE      CLOUDY    75  70  84 S12       29.85F
MADISON        CLOUDY    75  64  68 S14       29.81S
GREEN BAY      MOCLDY    73  71  93 S7        29.81S FOG
EAU CLAIRE     RAIN      67  67 100 NW13      29.78S
BLACK RVR FLS  LGT RAIN  67  67 100 CALM      29.76F
MEDFORD        LGT RAIN  63  63  99 CALM      29.81F
WAUSAU         RAIN      65  64  97 SE3       29.81F FOG
WIS RAPIDS     RAIN      67  67 100 E5        29.83R FOG
MARSHFIELD     RAIN      67  65  93 E3        29.80F FOG
RICE LAKE      RAIN      65  64  96 CALM      29.81R
$$

...NORTHEAST IOWA...


CITY           SKY/WX    TMP DP  RH WIND       PRES   REMARKS
WATERLOO       CLOUDY    68  66  93 S6        29.78S
DUBUQUE        LGT RAIN  71  69  93 S13       29.81S
DECORAH        LGT RAIN  68  68 100 CALM      29.77F
MASON CITY     CLOUDY    66  66 100 CALM      29.79S
CHARLES CITY   LGT RAIN  68  68 100 SE6       29.78F
OELWEIN        CLOUDY    68  66  94 S6        29.81R FOG
$$

...ELSEWHERE IN IOWA...


CITY           SKY/WX    TMP DP  RH WIND       PRES   REMARKS
DES MOINES     LGT RAIN  70  67  90 SW9       29.81R
IOWA CITY      MOCLDY    71  70  96 S7        29.82R
FORT DODGE     CLOUDY    66  64  94 SW3       29.80R
MARSHALLTOWN   CLOUDY    69  67  93 SW9       29.78S
CEDAR RAPIDS   CLOUDY    70  70 100 S7        29.80R FOG
$$

...NORTHERN ILLINOIS...


CITY           SKY/WX    TMP DP  RH WIND       PRES   REMARKS
CHICAGO-OHARE  CLOUDY    75  67  76 S12       29.86F
DUPAGE         CLOUDY    75  69  81 S12       29.87S
CHICAGO-MIDWAY MOCLDY    77  69  76 S12       29.88S
MOLINE         CLOUDY    71  68  90 S8        29.82S
ROCKFORD       LGT RAIN  73  68  84 S12       29.85S
STERLING       CLOUDY    72  66  83 S3        29.84S
PEORIA         CLOUDY    73  69  87 S7        29.86F
$$

NOTE: "FAIR" INDICATES FEW OR NO CLOUDS BELOW 12,000 FEET WITH NO
SIGNIFICANT WEATHER AND/OR OBSTRUCTIONS TO VISIBILITY. WIND
SPEEDS ARE IN MILES-PER-HOUR.



USA.gov is the U.S. government's official web portal to all federal, state and local government web resources and services.